Regional Weather Roundup
Issued by NWS Little Rock, AR

Home | Current Version | Previous Version | Graphics & Text | Print | Product List | Glossary On
Versions: 1 2 3 4 5 6 7 8 9 10 11 12 13 14 15 16 17 18 19 20 21 22 23 24 25 26 27 28 29 30 31 32 33 34 35 36 37 38 39 40 41 42 43 44 45 46 47 48 49 50
796
ASUS44 KLZK 231705
RWRLZK

WEATHER ROUNDUP FOR ARKANSAS
NATIONAL WEATHER SERVICE LITTLE ROCK AR
1200 PM CDT TUE MAY 23 2017

NOTE: "FAIR" INDICATES FEW OR NO CLOUDS BELOW 12,000 FEET WITH NO
SIGNIFICANT WEATHER AND/OR OBSTRUCTIONS TO VISIBILITY.

ARZ001-003-010-029-231800-
NORTHWEST ARKANSAS

CITY           SKY/WX    TMP DP  RH WIND       PRES   REMARKS
FAYETTEVILLE   PTSUNNY   68  57  68 VRB6      29.84F
FORT SMITH     MOSUNNY   73  55  53 N13       29.84F
HARRISON       MOSUNNY   69  57  65 NW10      29.82F
BENTONVILLE    PTSUNNY   66  55  68 NW9       29.86F
ROGERS         PTSUNNY   65  57  75 W10       29.85F
SILOAM SPGS    PTSUNNY   66  54  63 NW12      29.86S
HIGHFILL       PTSUNNY   68  56  65 N12       29.86S
SPRINGDALE     PTSUNNY   66  57  72 NW7       29.87F
$$

ARZ004-005-016-231800-
NORTH CENTRAL ARKANSAS

CITY           SKY/WX    TMP DP  RH WIND       PRES   REMARKS
BATESVILLE     CLOUDY    72  57  60 W6        29.79S
FLIPPIN        PTSUNNY   70  54  56 NW8       29.78S
MTN HOME       MOSUNNY   70  57  63 N8        29.79F
$$

ARZ040-041-231800-
WEST CENTRAL ARKANSAS

CITY           SKY/WX    TMP DP  RH WIND       PRES   REMARKS
MENA           CLOUDY    72  64  78 W7G16     29.86S
MOUNT IDA      CLOUDY    70  58  65 VRB5      29.81F
$$

ARZ009-017-025-026-028-231800-
NORTHEAST ARKANSAS

CITY           SKY/WX    TMP DP  RH WIND       PRES   REMARKS
JONESBORO      CLOUDY    75  48  38 W6        29.76F
NEWPORT        CLOUDY    72  58  61 NW5       29.78F
WALNUT RIDGE   MOSUNNY   72  54  53 W9        29.77S
BLYTHEVILLE      N/A     74  56  53 W5        29.77F
NW BLYTHEVILLE PTSUNNY   75  55  50 W5        29.76F
$$

ARZ022-023-033-042-044-231800-
CENTRAL ARKANSAS

CITY           SKY/WX    TMP DP  RH WIND       PRES   REMARKS
LITTLE ROCK    PTSUNNY   75  60  59 NW10      29.79F
N LITTLE ROCK    N/A     72  61  67 NW6       29.79F
CONWAY           N/A     73  59  60 VRB7G15   29.78F
SEARCY         PTSUNNY   73  61  65 VRB5      29.80F
HOT SPRINGS    CLOUDY    70  60  70 W8        29.82F
RUSSELLVILLE   MOSUNNY   74  58  57 W13       29.80F
CLINTON        PTSUNNY   73  55  53 VRB7G15   29.79F
$$

ARZ036-231800-
EAST ARKANSAS

CITY           SKY/WX    TMP DP  RH WIND       PRES   REMARKS
WEST MEMPHIS   PTSUNNY   73  58  59 NW7       29.76F
$$

ARZ050-053-066-070-073-231800-
SOUTHWEST ARKANSAS

CITY           SKY/WX    TMP DP  RH WIND       PRES   REMARKS
ARKADELPHIA      N/A     74  62  66 W7        29.82F
CAMDEN         MOSUNNY   73  59  60 NW8       29.83S
TEXARKANA      MOSUNNY   72  58  61 NW13      29.86S
EL DORADO      PTSUNNY   72  61  68 NW8       29.84S
DE QUEEN       MOSUNNY   71  63  75 VRB3      29.83F
$$

ARZ056-057-069-231800-
SOUTHEAST ARKANSAS

CITY           SKY/WX    TMP DP  RH WIND       PRES   REMARKS
PINE BLUFF     MOSUNNY   73  60  63 VRB7      29.80F
STUTTGART      MOSUNNY   75  54  46 NW8       29.79F
MONTICELLO     PTSUNNY   72  60  66 SW8       29.82R

$$






USA.gov is the U.S. government's official web portal to all federal, state and local government web resources and services.